Home   Weather   Ansbach   Past weeks

Flag for Germany Past Weather in Ansbach, Bavaria, Germany — Yesterday and Last 2 Weeks

Now
34 °F

Passing clouds.


Feels Like: 28 °F
Forecast: 29 / 58 °F
Wind: 7 mph from West

Location: Ansbach / Katterbach

Current Time: Apr 23, 2017 at 8:04:17 am

Latest Report: Apr 23, 2017 at 6:58 am


Visibility: N/A

Pressure: 30.27 "Hg

Humidity: 81%

Dew Point: 28 °F

Location of AnsbachLocation

Past Weather in Ansbach — Graph

°F

Ansbach Temperature Yesterday

Maximum temperature yesterday: 50 °F (at 12:21 pm)
Minimum temperature yesterday: 40 °F (at 11:58 pm)
Average temperature yesterday: 46 °F

High & Low Weather Summary for the Past Weeks

 TemperatureHumidityPressure
High70 °F (Apr 10, 2:58 pm)100% (Apr 18, 4:18 am)30.64 "Hg (Apr 18, 4:18 am)
Low28 °F (Apr 20, 5:58 am)33% (Apr 9, 5:58 pm)29.87 "Hg (Apr 17, 12:40 pm)
Average44 °F72%30.19 "Hg
* Reported Apr 8 6:58 am — Apr 23 6:58 am, Ansbach, Weather by CustomWeather, © 2017

Note: Actual official high and low records may vary slightly from our data, if they occured in-between our weather recording intervals... More about our weather records

Advertising

Ansbach Weather History for the Previous 24 Hours

Scroll right to see more
 ConditionsComfort  
Time TempWeatherWind HumidityBarometerVisibility
6:58 am
Sun, Apr 23
34 °FPassing clouds.7 mph81%30.27 "HgN/A
5:58 am36 °FPassing clouds.6 mph79%30.25 "HgN/A
4:58 am37 °FOvercast.7 mph77%30.24 "HgN/A
3:58 am37 °FOvercast.6 mph75%30.25 "HgN/A
2:58 am37 °FPassing clouds.5 mph73%30.24 "HgN/A
1:58 am39 °FOvercast.8 mph69%30.23 "HgN/A
12:58 am39 °FOvercast.6 mph75%30.24 "HgN/A
11:58 pm
Sat, Apr 22
40 °FOvercast.7 mph73%30.24 "HgN/A
10:58 pm42 °FOvercast.7 mph69%30.24 "HgN/A
9:58 pm42 °FOvercast.6 mph68%30.22 "HgN/A
8:58 pm43 °FPassing clouds.7 mph71%30.21 "HgN/A
7:58 pm45 °FMostly cloudy.6 mph66%30.20 "HgN/A
6:58 pm46 °FScattered clouds.15 mph66%30.19 "HgN/A
5:58 pm45 °FMore clouds than sun.9 mph74%30.20 "HgN/A
5:34 pm45 °FCloudy.7 mph81%30.14 "HgN/A
4:58 pm44 °FMostly cloudy.7 mph86%30.20 "HgN/A
3:59 pm41 °FMore clouds than sun.10 mph93%30.16 "HgN/A
3:41 pm41 °FLight rain. Cloudy.8 mph93%30.16 "HgN/A
3:00 pm43 °FLight rain. Mostly cloudy.9 mph87%30.16 "HgN/A
2:34 pm43 °FLight rain. Mostly cloudy.15 mph93%30.16 "HgN/A
2:19 pm45 °FLight rain. Cloudy.12 mph87%30.16 "HgN/A
1:58 pm48 °FLight rain. Overcast.16 mph82%30.21 "HgN/A
1:30 pm46 °FLight rain. More clouds than sun.14 mph82%30.16 "HgN/A
12:58 pm49 °FLight rain. Mostly cloudy.9 mph72%30.22 "HgN/A
12:21 pm50 °FDrizzle. Partly sunny.17 mph67%30.16 "HgN/A
11:58 am49 °FScattered clouds.13 mph68%30.22 "HgN/A
11:12 am48 °FScattered clouds.14 mph71%30.17 "HgN/A
11:06 am48 °FDrizzle. Broken clouds.15 mph71%30.17 "HgN/A
10:13 am48 °FScattered clouds.17 mph71%30.18 "HgN/A
10:00 am48 °FPartly sunny.17 mph71%30.18 "HgN/A
8:58 am47 °FOvercast.13 mph69%30.23 "HgN/A
Weather by CustomWeather, © 2017

See weather overviewHow to use our weather pages